• în România
  • Lista ţărilor
  • Pe 7 zile
  • Temperatura apei
  • Hartă satelitară
  • Meteo pe hartă
  • Widget-uri
  • user-avatar
    Intrare

    Meteo pe oră la Sveti Vlas

    Astăzi, 20 Iunie, Miercuri

    Timp Temperatura Precipitaţii Vânt Presiune Umiditate
    00:00 +19°C° 0 mm 4 m/s 755 mmHg 58%
    01:00 +19°C° 0 mm 4 m/s 755 mmHg 58%
    02:00 +18°C° 0 mm 4 m/s 755 mmHg 58%
    03:00 +18°C° 0 mm 4 m/s 755 mmHg 59%
    04:00 +17°C° 0 mm 5 m/s 755 mmHg 60%
    05:00 +17°C° 0 mm 5 m/s 755 mmHg 61%
    06:00 +20°C° 0 mm 5 m/s 755 mmHg 57%
    07:00 +23°C° 0 mm 5 m/s 756 mmHg 52%
    08:00 +26°C° 0 mm 5 m/s 756 mmHg 48%
    09:00 +28°C° 0 mm 5 m/s 756 mmHg 42%
    10:00 +30°C° 0 mm 5 m/s 756 mmHg 37%
    11:00 +33°C° 0 mm 6 m/s 756 mmHg 31%
    12:00 +33°C° 0 mm 6 m/s 756 mmHg 31%
    13:00 +33°C° 0 mm 6 m/s 756 mmHg 30%
    14:00 +34°C° 0 mm 6 m/s 756 mmHg 29%
    15:00 +33°C° 0 mm 5 m/s 756 mmHg 30%
    16:00 +32°C° 0 mm 5 m/s 756 mmHg 32%
    17:00 +32°C° 0 mm 5 m/s 756 mmHg 34%
    18:00 +28°C° 0 mm 4 m/s 756 mmHg 42%
    19:00 +26°C° 0 mm 4 m/s 756 mmHg 50%
    20:00 +22°C° 0 mm 3 m/s 756 mmHg 58%
    21:00 +21°C° 0 mm 3 m/s 756 mmHg 60%
    22:00 +20°C° 0 mm 2 m/s 756 mmHg 61%
    23:00 +20°C° 0 mm 2 m/s 756 mmHg 63%

    Mâine, 21 Iunie, Joi

    Timp Temperatura Precipitaţii Vânt Presiune Umiditate
    00:00 +19°C° 0 mm 2 m/s 756 mmHg 61%
    01:00 +19°C° 0 mm 3 m/s 756 mmHg 60%
    02:00 +19°C° 0 mm 3 m/s 756 mmHg 58%
    03:00 +19°C° 0 mm 3 m/s 756 mmHg 58%
    04:00 +18°C° 0 mm 3 m/s 756 mmHg 57%
    05:00 +18°C° 0 mm 3 m/s 756 mmHg 56%
    06:00 +21°C° 0 mm 3 m/s 755 mmHg 52%
    07:00 +23°C° 0 mm 4 m/s 755 mmHg 48%
    08:00 +27°C° 0 mm 4 m/s 755 mmHg 44%
    09:00 +29°C° 0 mm 4 m/s 755 mmHg 41%
    10:00 +30°C° 0 mm 3 m/s 755 mmHg 38%
    11:00 +33°C° 0 mm 3 m/s 755 mmHg 35%
    12:00 +34°C° 0 mm 3 m/s 754 mmHg 35%
    13:00 +34°C° 0 mm 3 m/s 754 mmHg 35%
    14:00 +35°C° 0 mm 4 m/s 754 mmHg 35%
    15:00 +34°C° 0 mm 3 m/s 753 mmHg 38%
    16:00 +33°C° 0 mm 3 m/s 753 mmHg 41%
    17:00 +33°C° 0 mm 3 m/s 753 mmHg 44%
    18:00 +29°C° 0,1 mm 3 m/s 752 mmHg 53%
    19:00 +27°C° 0,1 mm 2 m/s 752 mmHg 62%
    20:00 +25°C° 0,1 mm 2 m/s 752 mmHg 72%
    21:00 +24°C° 0,1 mm 1 m/s 752 mmHg 76%
    22:00 +23°C° 0,1 mm 1 m/s 752 mmHg 80%
    23:00 +20°C° 0,1 mm 0 m/s 752 mmHg 84%

    Poimâine, 22 Iunie, Vineri

    Timp Temperatura Precipitaţii Vânt Presiune Umiditate
    00:00 +20°C° 0 mm 0 m/s 752 mmHg 84%
    01:00 +22°C° 0 mm 1 m/s 752 mmHg 84%
    02:00 +21°C° 0 mm 1 m/s 752 mmHg 84%
    03:00 +21°C° 0 mm 1 m/s 751 mmHg 83%
    04:00 +21°C° 0 mm 1 m/s 751 mmHg 82%
    05:00 +21°C° 0 mm 1 m/s 751 mmHg 82%
    06:00 +23°C° 0 mm 1 m/s 751 mmHg 73%
    07:00 +26°C° 0 mm 1 m/s 751 mmHg 65%
    08:00 +28°C° 0 mm 1 m/s 751 mmHg 57%
    09:00 +30°C° 0 mm 1 m/s 751 mmHg 51%
    10:00 +32°C° 0 mm 1 m/s 751 mmHg 44%
    11:00 +34°C° 0 mm 1 m/s 750 mmHg 38%
    12:00 +34°C° 0 mm 2 m/s 750 mmHg 40%
    13:00 +34°C° 0 mm 2 m/s 750 mmHg 41%
    14:00 +33°C° 0 mm 3 m/s 749 mmHg 42%
    15:00 +33°C° 0 mm 3 m/s 749 mmHg 43%
    16:00 +33°C° 0 mm 3 m/s 749 mmHg 43%
    17:00 +33°C° 0 mm 3 m/s 749 mmHg 44%
    18:00 +30°C° 0 mm 3 m/s 749 mmHg 48%
    19:00 +28°C° 0 mm 3 m/s 749 mmHg 53%
    20:00 +27°C° 0 mm 3 m/s 749 mmHg 57%
    21:00 +25°C° 0,4 mm 4 m/s 750 mmHg 66%
    22:00 +22°C° 0,4 mm 6 m/s 750 mmHg 75%
    23:00 +20°C° 0,4 mm 7 m/s 750 mmHg 84%

    23 Iunie, Sâmbătă

    Timp Temperatura Precipitaţii Vânt Presiune Umiditate
    00:00 +18°C° 0,2 mm 8 m/s 751 mmHg 82%
    01:00 +17°C° 0,2 mm 9 m/s 751 mmHg 80%
    02:00 +16°C° 0,2 mm 9 m/s 751 mmHg 78%
    03:00 +16°C° 0,1 mm 9 m/s 752 mmHg 77%
    04:00 +15°C° 0,1 mm 9 m/s 752 mmHg 75%
    05:00 +15°C° 0,1 mm 9 m/s 753 mmHg 74%
    06:00 +16°C° 0 mm 9 m/s 753 mmHg 69%
    07:00 +17°C° 0 mm 9 m/s 754 mmHg 64%
    08:00 +18°C° 0 mm 9 m/s 754 mmHg 60%
    09:00 +20°C° 0 mm 8 m/s 755 mmHg 56%
    10:00 +21°C° 0 mm 8 m/s 755 mmHg 53%
    11:00 +22°C° 0 mm 7 m/s 755 mmHg 49%
    12:00 +23°C° 0 mm 7 m/s 755 mmHg 48%
    13:00 +23°C° 0 mm 6 m/s 755 mmHg 47%
    14:00 +24°C° 0 mm 6 m/s 755 mmHg 45%
    15:00 +24°C° 0 mm 6 m/s 755 mmHg 46%
    16:00 +25°C° 0 mm 5 m/s 755 mmHg 46%
    17:00 +23°C° 0 mm 5 m/s 755 mmHg 46%
    18:00 +22°C° 0 mm 4 m/s 755 mmHg 52%
    19:00 +20°C° 0 mm 3 m/s 756 mmHg 58%
    20:00 +18°C° 0 mm 2 m/s 756 mmHg 64%
    21:00 +18°C° 0 mm 2 m/s 756 mmHg 66%
    22:00 +17°C° 0 mm 2 m/s 756 mmHg 68%
    23:00 +18°C° 0 mm 1 m/s 756 mmHg 70%

    24 Iunie, Duminică

    Timp Temperatura Precipitaţii Vânt Presiune Umiditate
    00:00 +17°C° 0 mm 2 m/s 756 mmHg 70%
    01:00 +17°C° 0 mm 2 m/s 756 mmHg 70%
    02:00 +17°C° 0 mm 2 m/s 756 mmHg 70%
    03:00 +17°C° 0 mm 2 m/s 756 mmHg 69%
    04:00 +17°C° 0 mm 2 m/s 756 mmHg 68%
    05:00 +17°C° 0 mm 3 m/s 756 mmHg 67%
    06:00 +19°C° 0 mm 3 m/s 756 mmHg 62%
    07:00 +20°C° 0 mm 3 m/s 756 mmHg 57%
    08:00 +22°C° 0 mm 4 m/s 756 mmHg 52%
    09:00 +23°C° 0 mm 4 m/s 756 mmHg 47%
    10:00 +26°C° 0 mm 5 m/s 757 mmHg 42%
    11:00 +27°C° 0 mm 5 m/s 757 mmHg 38%
    12:00 +27°C° 0 mm 5 m/s 756 mmHg 38%
    13:00 +28°C° 0 mm 5 m/s 756 mmHg 38%
    14:00 +28°C° 0 mm 5 m/s 756 mmHg 38%
    15:00 +27°C° 0 mm 5 m/s 756 mmHg 40%
    16:00 +27°C° 0 mm 5 m/s 756 mmHg 43%
    17:00 +26°C° 0 mm 5 m/s 756 mmHg 46%
    18:00 +23°C° 0 mm 5 m/s 756 mmHg 55%
    19:00 +21°C° 0 mm 5 m/s 756 mmHg 65%
    20:00 +19°C° 0 mm 4 m/s 756 mmHg 75%
    21:00 +19°C° 0 mm 4 m/s 757 mmHg 79%
    22:00 +18°C° 0 mm 4 m/s 757 mmHg 84%
    23:00 +17°C° 0 mm 4 m/s 757 mmHg 89%

    25 Iunie, Luni

    Timp Temperatura Precipitaţii Vânt Presiune Umiditate
    00:00 +17°C° 0 mm 4 m/s 756 mmHg 90%
    01:00 +17°C° 0 mm 4 m/s 756 mmHg 90%
    02:00 +15°C° 0 mm 4 m/s 756 mmHg 90%
    03:00 +15°C° 0 mm 4 m/s 756 mmHg 90%
    04:00 +15°C° 0 mm 4 m/s 756 mmHg 90%
    05:00 +15°C° 0 mm 5 m/s 756 mmHg 90%
    06:00 +17°C° 0 mm 5 m/s 756 mmHg 80%
    07:00 +20°C° 0 mm 6 m/s 756 mmHg 70%
    08:00 +23°C° 0 mm 6 m/s 756 mmHg 60%
    09:00 +24°C° 0 mm 6 m/s 756 mmHg 56%
    10:00 +26°C° 0 mm 7 m/s 756 mmHg 52%
    11:00 +28°C° 0 mm 7 m/s 756 mmHg 47%
    12:00 +28°C° 0 mm 7 m/s 755 mmHg 46%
    13:00 +28°C° 0 mm 7 m/s 755 mmHg 44%
    14:00 +28°C° 0 mm 7 m/s 755 mmHg 42%
    15:00 +28°C° 0 mm 7 m/s 755 mmHg 45%
    16:00 +27°C° 0 mm 8 m/s 755 mmHg 47%
    17:00 +27°C° 0 mm 8 m/s 755 mmHg 49%
    18:00 +24°C° 0 mm 7 m/s 755 mmHg 56%
    19:00 +22°C° 0 mm 7 m/s 755 mmHg 64%
    20:00 +21°C° 0 mm 6 m/s 755 mmHg 71%
    21:00 +20°C° 0 mm 6 m/s 755 mmHg 75%
    22:00 +19°C° 0 mm 6 m/s 756 mmHg 79%
    23:00 +17°C° 0 mm 6 m/s 756 mmHg 84%
    Arată mai mult